User: anonymous   Login
Location: Caltech
(34.1382°N, 118.1253°W)
Time: 17:41:44
(UTC-07:00)
Language:

SL-16 R/B - Orbit

View from above orbital plane
View from above orbital plane
View from above satellite
View from above satellite

Ground track
Ground track

The orbit data is extracted from the following two-line orbital elements,

1 31793U 07029B   18111.45504598 +.00000147 +00000-0 +10149-3 0  9993
2 31793 070.9743 101.6318 0002096 281.4385 236.7923 14.14402944558264
Epoch (UTC): 21 April 2018 10:55:15
Eccentricity: 0.0002096
inclination: 70.9743°
perigee height: 843 km
apogee height: 846 km
right ascension of ascending node: 101.6318°
argument of perigee: 281.4385°
revolutions per day: 14.14402944
mean anomaly at epoch: 236.7923°
orbit number at epoch: 55826

The dashed part of the orbit path shows where the satellite is in the earth's shadow,  

DLR